Terminal Aerodrome Forecast
Issued by NWS Duluth, MN

Home | Current Version | Previous Version | Text Only | Print | Product List | Glossary On
Versions: 1 2 3 4 5 6 7 8 9 10 11 12 13 14 15 16 17 18 19 20 21 22 23 24 25 26 27 28 29 30 31 32 33 34
000
FTUS43 KDLH 290300 AAB
TAFINL
TAF AMD
KINL 290303Z 2903/2924 04010KT P6SM BKN015 OVC025
      TEMPO 2903/2906 4SM BR OVC009
     FM290600 05014KT P6SM SCT015 BKN025
      TEMPO 2906/2910 BKN013
     FM291400 07012KT P6SM SCT020 BKN030
     FM291800 08008KT P6SM BKN035=

USA.gov is the U.S. government's official web portal to all federal, state and local government web resources and services.